Location: Strawberry
(45.6646°N, 111.9596°W)
Time: 14:44:37
(UTC+00:00)

Tiangong - Pass Details

Date: 20 August 2022
Orbit: 377 x 382 km, 41.5° (Epoch: 27 September)

Event Time Altitude Azimuth Distance (km) Brightness Sun altitude
Rises 04:08:17 0° 258° (WSW) 2,237 2.3 -16.1°
Reaches altitude 10° 04:10:26 10° 250° (WSW) 1,384 1.1 -16.4°
Enters shadow 04:13:15 37° 186° (S) 599 -1.5 -16.8°
